Time,TemperatureF,DewpointF,PressureIn,WindDirection,WindDirectionDegrees,WindSpeedMPH,WindSpeedGustMPH,Humidity,HourlyPrecipIn,Conditions,Clouds,dailyrainin,SoftwareType,DateUTC
2013-03-06 00:03:00,31.0,24.9,30.11,North,9,0.0,0.0,78,0.00,,,0.16,Wunderground v.1.15,2013-03-06 06:03:00,
2013-03-06 00:13:00,31.0,24.6,30.12,North,360,0.0,0.0,77,0.00,,,0.16,Wunderground v.1.15,2013-03-06 06:13:00,
2013-03-06 00:23:00,31.0,24.6,30.13,NNW,341,0.0,0.0,77,0.00,,,0.16,Wunderground v.1.15,2013-03-06 06:23:00,
2013-03-06 00:33:00,30.8,24.4,30.13,NW,320,0.0,0.0,77,0.00,,,0.16,Wunderground v.1.15,2013-03-06 06:33:00,
2013-03-06 00:43:00,30.8,24.1,30.14,North,9,0.0,0.0,76,0.00,,,0.16,Wunderground v.1.15,2013-03-06 06:43:00,
2013-03-06 00:53:00,30.7,24.0,30.14,NNW,328,0.0,0.0,76,0.00,,,0.16,Wunderground v.1.15,2013-03-06 06:53:00,
2013-03-06 01:03:00,30.5,23.8,30.15,NNW,331,0.0,0.0,76,0.00,,,0.16,Wunderground v.1.15,2013-03-06 07:03:00,
2013-03-06 01:13:00,30.5,23.8,30.15,NW,326,0.0,0.0,76,0.00,,,0.16,Wunderground v.1.15,2013-03-06 07:13:00,
2013-03-06 01:23:00,30.5,23.8,30.16,NNW,327,0.0,0.0,76,0.00,,,0.16,Wunderground v.1.15,2013-03-06 07:23:00,
2013-03-06 01:33:00,30.7,23.7,30.16,North,360,0.0,0.0,75,0.00,,,0.16,Wunderground v.1.15,2013-03-06 07:33:00,
2013-03-06 01:43:00,30.7,23.7,30.16,NE,37,0.0,0.0,75,0.00,,,0.16,Wunderground v.1.15,2013-03-06 07:43:00,
2013-03-06 01:53:00,30.7,23.7,30.16,NNW,337,0.0,0.0,75,0.00,,,0.00,Wunderground v.1.15,2013-03-06 07:53:00,
2013-03-06 02:03:00,30.8,23.8,30.16,NW,311,0.0,0.0,75,0.00,,,0.00,Wunderground v.1.15,2013-03-06 08:03:00,
2013-03-06 02:13:00,30.8,23.5,30.17,North,355,0.0,0.0,74,0.00,,,0.00,Wunderground v.1.15,2013-03-06 08:13:00,
2013-03-06 02:23:00,31.0,23.7,30.17,NNW,348,0.0,0.0,74,0.00,,,0.00,Wunderground v.1.15,2013-03-06 08:23:00,
2013-03-06 02:33:00,31.1,23.8,30.17,NNW,342,0.0,0.0,74,0.00,,,0.00,Wunderground v.1.15,2013-03-06 08:33:00,
2013-03-06 02:43:00,31.1,23.5,30.17,North,360,0.0,0.0,73,0.00,,,0.00,Wunderground v.1.15,2013-03-06 08:43:00,
2013-03-06 02:53:00,31.1,23.5,30.17,NNW,336,0.0,0.0,73,0.00,,,0.00,Wunderground v.1.15,2013-03-06 08:53:00,
2013-03-06 03:03:00,31.0,23.4,30.18,NW,322,0.0,0.0,73,0.00,,,0.00,Wunderground v.1.15,2013-03-06 09:03:00,
2013-03-06 03:18:00,31.0,23.4,30.18,NW,317,0.0,0.0,73,0.00,,,0.00,Wunderground v.1.15,2013-03-06 09:18:00,
2013-03-06 03:23:00,31.0,23.4,30.19,North,355,0.0,0.0,73,0.00,,,0.00,Wunderground v.1.15,2013-03-06 09:23:00,
2013-03-06 03:33:00,31.0,23.4,30.20,North,5,0.0,0.0,73,0.00,,,0.00,Wunderground v.1.15,2013-03-06 09:33:00,
2013-03-06 03:43:00,31.0,23.4,30.20,NNW,342,0.0,0.0,73,0.00,,,0.00,Wunderground v.1.15,2013-03-06 09:43:00,
2013-03-06 03:53:00,30.8,23.2,30.21,NNE,26,0.0,0.0,73,0.00,,,0.00,Wunderground v.1.15,2013-03-06 09:53:00,
2013-03-06 04:03:00,30.5,22.5,30.22,NNE,18,0.0,0.0,72,0.00,,,0.00,Wunderground v.1.15,2013-03-06 10:03:00,
2013-03-06 04:13:00,30.4,22.8,30.22,North,360,0.0,0.0,73,0.00,,,0.00,Wunderground v.1.15,2013-03-06 10:13:00,
2013-03-06 04:23:00,30.2,22.6,30.23,NNW,345,0.0,0.0,73,0.00,,,0.00,Wunderground v.1.15,2013-03-06 10:23:00,
2013-03-06 04:33:00,30.1,22.5,30.24,North,351,0.0,0.0,73,0.00,,,0.00,Wunderground v.1.15,2013-03-06 10:33:00,
2013-03-06 04:43:00,29.6,22.3,30.24,NNW,330,0.0,0.0,74,0.00,,,0.00,Wunderground v.1.15,2013-03-06 10:43:00,
2013-03-06 04:53:00,29.2,21.9,30.25,North,350,0.0,0.0,74,0.00,,,0.00,Wunderground v.1.15,2013-03-06 10:53:00,
2013-03-06 05:03:00,29.2,21.9,30.25,NW,312,0.0,0.0,74,0.00,,,0.00,Wunderground v.1.15,2013-03-06 11:03:00,
2013-03-06 05:13:00,29.3,22.0,30.26,NNW,342,0.0,0.0,74,0.00,,,0.00,Wunderground v.1.15,2013-03-06 11:13:00,
2013-03-06 05:23:00,29.5,22.2,30.26,North,5,0.0,0.0,74,0.00,,,0.00,Wunderground v.1.15,2013-03-06 11:23:00,
2013-03-06 05:33:00,29.3,22.0,30.27,NW,312,0.0,0.0,74,0.00,,,0.00,Wunderground v.1.15,2013-03-06 11:33:00,
2013-03-06 05:43:00,29.2,21.9,30.28,NNW,338,0.0,0.0,74,0.00,,,0.00,Wunderground v.1.15,2013-03-06 11:43:00,
2013-03-06 05:53:00,29.0,22.1,30.28,NW,313,0.0,0.0,75,0.00,,,0.00,Wunderground v.1.15,2013-03-06 11:53:00,
2013-03-06 06:03:00,28.4,21.5,30.28,NNW,336,0.0,0.0,75,0.00,,,0.00,Wunderground v.1.15,2013-03-06 12:03:00,
2013-03-06 06:13:00,28.0,21.1,30.28,NNW,336,0.0,0.0,75,0.00,,,0.00,Wunderground v.1.15,2013-03-06 12:13:00,
2013-03-06 06:23:00,27.7,20.8,30.29,NW,325,0.0,0.0,75,0.00,,,0.00,Wunderground v.1.15,2013-03-06 12:23:00,
2013-03-06 06:33:00,27.4,20.8,30.29,NW,314,0.0,0.0,76,0.00,,,0.00,Wunderground v.1.15,2013-03-06 12:33:00,
2013-03-06 06:43:00,27.4,20.8,30.30,WNW,302,0.0,0.0,76,0.00,,,0.00,Wunderground v.1.15,2013-03-06 12:43:00,
2013-03-06 06:53:00,27.4,20.8,30.30,NNE,13,0.0,0.0,76,0.00,,,0.00,Wunderground v.1.15,2013-03-06 12:53:00,
2013-03-06 07:03:00,27.4,20.5,30.31,NNW,344,0.0,0.0,75,0.00,,,0.00,Wunderground v.1.15,2013-03-06 13:03:00,
2013-03-06 07:13:00,27.6,21.0,30.32,NNW,335,0.0,0.0,76,0.00,,,0.00,Wunderground v.1.15,2013-03-06 13:13:00,
2013-03-06 07:23:00,27.7,21.1,30.32,NW,326,0.0,0.0,76,0.00,,,0.00,Wunderground v.1.15,2013-03-06 13:23:00,
2013-03-06 07:33:00,27.7,20.8,30.33,NNW,327,0.0,0.0,75,0.00,,,0.00,Wunderground v.1.15,2013-03-06 13:33:00,
2013-03-06 07:43:00,27.8,21.2,30.33,North,355,0.0,0.0,76,0.00,,,0.00,Wunderground v.1.15,2013-03-06 13:43:00,
2013-03-06 07:53:00,28.0,21.1,30.34,NNW,330,0.0,0.0,75,0.00,,,0.00,Wunderground v.1.15,2013-03-06 13:53:00,
2013-03-06 08:03:00,28.1,21.2,30.33,NW,325,0.0,0.0,75,0.00,,,0.00,Wunderground v.1.15,2013-03-06 14:03:00,
2013-03-06 08:13:00,28.3,21.1,30.34,NNE,21,0.0,0.0,74,0.00,,,0.00,Wunderground v.1.15,2013-03-06 14:13:00,
2013-03-06 08:23:00,28.4,21.2,30.34,NW,319,0.0,0.0,74,0.00,,,0.00,Wunderground v.1.15,2013-03-06 14:23:00,
2013-03-06 08:33:00,28.9,21.3,30.34,NNW,333,0.0,0.0,73,0.00,,,0.00,Wunderground v.1.15,2013-03-06 14:33:00,
2013-03-06 08:43:00,29.2,21.3,30.34,North,355,0.0,0.0,72,0.00,,,0.00,Wunderground v.1.15,2013-03-06 14:43:00,
2013-03-06 08:53:00,29.3,21.1,30.35,NNW,348,0.0,0.0,71,0.00,,,0.00,Wunderground v.1.15,2013-03-06 14:53:00,
2013-03-06 09:03:00,29.8,21.5,30.35,WNW,292,0.0,0.0,71,0.00,,,0.00,Wunderground v.1.15,2013-03-06 15:03:00,
2013-03-06 09:13:00,29.9,21.3,30.35,North,360,0.0,0.0,70,0.00,,,0.00,Wunderground v.1.15,2013-03-06 15:13:00,
2013-03-06 09:23:00,30.5,22.2,30.36,NW,326,0.0,0.0,71,0.00,,,0.00,Wunderground v.1.15,2013-03-06 15:23:00,
2013-03-06 09:33:00,31.0,22.4,30.36,NNW,333,0.0,0.0,70,0.00,,,0.00,Wunderground v.1.15,2013-03-06 15:33:00,
2013-03-06 09:43:00,31.1,22.1,30.36,NW,318,0.0,0.0,69,0.00,,,0.00,Wunderground v.1.15,2013-03-06 15:43:00,
2013-03-06 09:53:00,31.1,21.8,30.36,NW,305,0.0,0.0,68,0.00,,,0.00,Wunderground v.1.15,2013-03-06 15:53:00,
2013-03-06 10:03:00,31.7,23.0,30.37,NNW,336,0.0,0.0,70,0.00,,,0.00,Wunderground v.1.15,2013-03-06 16:03:00,
2013-03-06 10:13:00,31.7,22.7,30.38,NNW,331,0.0,0.0,69,0.00,,,0.00,Wunderground v.1.15,2013-03-06 16:13:00,
2013-03-06 10:23:00,31.7,23.0,30.37,NW,320,0.0,0.0,70,0.00,,,0.00,Wunderground v.1.15,2013-03-06 16:23:00,
2013-03-06 10:33:00,32.1,23.1,30.37,NNW,329,0.0,0.0,69,0.00,,,0.01,Wunderground v.1.15,2013-03-06 16:33:00,
2013-03-06 10:43:00,32.1,23.1,30.37,North,350,0.0,0.0,69,0.00,,,0.01,Wunderground v.1.15,2013-03-06 16:43:00,
2013-03-06 10:53:00,32.6,23.6,30.37,North,355,0.0,0.0,69,0.00,,,0.01,Wunderground v.1.15,2013-03-06 16:53:00,
2013-03-06 11:03:00,32.9,24.2,30.38,NW,320,0.0,0.0,70,0.00,,,0.01,Wunderground v.1.15,2013-03-06 17:03:00,
2013-03-06 11:13:00,33.0,23.9,30.37,NW,306,0.0,0.0,69,0.00,,,0.01,Wunderground v.1.15,2013-03-06 17:13:00,
2013-03-06 11:23:00,32.4,23.4,30.38,NNW,337,0.0,0.0,69,0.00,,,0.02,Wunderground v.1.15,2013-03-06 17:23:00,
2013-03-06 11:33:00,32.7,23.6,30.37,NNW,347,0.0,0.0,69,0.00,,,0.02,Wunderground v.1.15,2013-03-06 17:33:00,
2013-03-06 11:43:00,32.9,23.5,30.37,NW,323,0.0,0.0,68,0.00,,,0.02,Wunderground v.1.15,2013-03-06 17:43:00,
2013-03-06 11:53:00,33.3,23.2,30.37,NW,312,0.0,0.0,66,0.00,,,0.02,Wunderground v.1.15,2013-03-06 17:53:00,
2013-03-06 12:03:00,32.9,22.4,30.37,North,355,0.0,0.0,65,0.00,,,0.03,Wunderground v.1.15,2013-03-06 18:03:00,
2013-03-06 12:13:00,32.9,22.4,30.37,NNE,13,0.0,0.0,65,0.00,,,0.03,Wunderground v.1.15,2013-03-06 18:13:00,
2013-03-06 12:23:00,33.0,22.1,30.36,NW,304,0.0,0.0,64,0.00,,,0.03,Wunderground v.1.15,2013-03-06 18:23:00,
2013-03-06 12:33:00,33.5,23.7,30.36,NNW,342,0.0,0.0,67,0.00,,,0.03,Wunderground v.1.15,2013-03-06 18:33:00,
2013-03-06 12:43:00,33.2,23.1,30.36,NW,307,0.0,0.0,66,0.00,,,0.03,Wunderground v.1.15,2013-03-06 18:43:00,
2013-03-06 12:53:00,32.9,22.8,30.36,NW,324,0.0,0.0,66,0.00,,,0.03,Wunderground v.1.15,2013-03-06 18:53:00,
2013-03-06 13:03:00,33.2,24.5,30.36,NNW,329,0.0,0.0,70,0.00,,,0.03,Wunderground v.1.15,2013-03-06 19:03:00,
2013-03-06 13:13:00,33.0,23.9,30.36,NW,322,0.0,0.0,69,0.00,,,0.04,Wunderground v.1.15,2013-03-06 19:13:00,
2013-03-06 13:23:00,33.0,23.2,30.36,WNW,296,0.0,0.0,67,0.00,,,0.04,Wunderground v.1.15,2013-03-06 19:23:00,
2013-03-06 13:33:00,33.0,23.9,30.36,NNW,338,0.0,0.0,69,0.00,,,0.04,Wunderground v.1.15,2013-03-06 19:33:00,
2013-03-06 13:43:00,33.5,24.4,30.36,NW,321,0.0,0.0,69,0.00,,,0.04,Wunderground v.1.15,2013-03-06 19:43:00,
2013-03-06 13:53:00,33.6,24.5,30.36,NNW,329,0.0,0.0,69,0.00,,,0.04,Wunderground v.1.15,2013-03-06 19:53:00,
2013-03-06 14:03:00,33.0,23.2,30.36,NW,326,0.0,0.0,67,0.00,,,0.04,Wunderground v.1.15,2013-03-06 20:03:00,
2013-03-06 14:18:00,32.6,23.2,30.37,NW,309,0.0,0.0,68,0.00,,,0.04,Wunderground v.1.15,2013-03-06 20:18:00,
2013-03-06 14:23:00,32.7,23.6,30.37,NNW,329,0.0,0.0,69,0.00,,,0.04,Wunderground v.1.15,2013-03-06 20:23:00,
2013-03-06 14:33:00,32.7,24.0,30.37,NNW,333,0.0,0.0,70,0.00,,,0.04,Wunderground v.1.15,2013-03-06 20:33:00,
2013-03-06 14:43:00,32.7,23.3,30.37,NW,325,0.0,0.0,68,0.00,,,0.04,Wunderground v.1.15,2013-03-06 20:43:00,
2013-03-06 14:53:00,33.3,24.2,30.37,West,281,0.0,0.0,69,0.00,,,0.04,Wunderground v.1.15,2013-03-06 20:53:00,
2013-03-06 15:03:00,33.2,23.8,30.37,NNW,329,0.0,0.0,68,0.00,,,0.05,Wunderground v.1.15,2013-03-06 21:03:00,
2013-03-06 15:13:00,33.5,24.4,30.38,WNW,302,0.0,0.0,69,0.00,,,0.05,Wunderground v.1.15,2013-03-06 21:13:00,
2013-03-06 15:23:00,33.8,24.7,30.37,WNW,300,0.0,0.0,69,0.00,,,0.05,Wunderground v.1.15,2013-03-06 21:23:00,
2013-03-06 15:33:00,33.6,23.8,30.38,WNW,297,0.0,0.0,67,0.00,,,0.05,Wunderground v.1.15,2013-03-06 21:33:00,
2013-03-06 15:43:00,33.8,24.0,30.38,NW,315,0.0,0.0,67,0.00,,,0.05,Wunderground v.1.15,2013-03-06 21:43:00,
2013-03-06 15:53:00,33.5,24.1,30.38,NW,321,0.0,0.0,68,0.00,,,0.05,Wunderground v.1.15,2013-03-06 21:53:00,
2013-03-06 16:03:00,33.3,24.6,30.38,NW,306,0.0,0.0,70,0.00,,,0.05,Wunderground v.1.15,2013-03-06 22:03:00,
2013-03-06 16:13:00,32.9,23.8,30.38,NW,307,0.0,0.0,69,0.00,,,0.05,Wunderground v.1.15,2013-03-06 22:13:00,
2013-03-06 16:23:00,32.7,24.0,30.38,WNW,289,0.0,0.0,70,0.00,,,0.05,Wunderground v.1.15,2013-03-06 22:23:00,
2013-03-06 16:33:00,32.4,23.7,30.38,NW,326,0.0,0.0,70,0.00,,,0.05,Wunderground v.1.15,2013-03-06 22:33:00,
2013-03-06 16:43:00,32.3,23.6,30.39,NW,326,0.0,0.0,70,0.00,,,0.05,Wunderground v.1.15,2013-03-06 22:43:00,
2013-03-06 16:53:00,32.0,23.3,30.39,NNW,332,0.0,0.0,70,0.00,,,0.05,Wunderground v.1.15,2013-03-06 22:53:00,
2013-03-06 17:03:00,31.7,23.7,30.39,NNW,327,0.0,0.0,72,0.00,,,0.05,Wunderground v.1.15,2013-03-06 23:03:00,
2013-03-06 17:13:00,31.4,23.1,30.39,NNW,327,0.0,0.0,71,0.00,,,0.05,Wunderground v.1.15,2013-03-06 23:13:00,
2013-03-06 17:23:00,31.1,23.1,30.39,NNW,328,0.0,0.0,72,0.00,,,0.05,Wunderground v.1.15,2013-03-06 23:23:00,
2013-03-06 17:33:00,31.0,23.0,30.40,NNW,328,0.0,0.0,72,0.00,,,0.05,Wunderground v.1.15,2013-03-06 23:33:00,
2013-03-06 17:43:00,30.7,22.7,30.40,NW,319,0.0,0.0,72,0.00,,,0.05,Wunderground v.1.15,2013-03-06 23:43:00,
2013-03-06 17:53:00,30.5,22.9,30.40,NW,319,0.0,0.0,73,0.00,,,0.05,Wunderground v.1.15,2013-03-06 23:53:00,
2013-03-06 18:03:00,30.2,22.6,30.41,NW,319,0.0,0.0,73,0.00,,,0.05,Wunderground v.1.15,2013-03-07 00:03:00,
2013-03-06 18:13:00,30.1,22.5,30.41,NW,325,0.0,0.0,73,0.00,,,0.05,Wunderground v.1.15,2013-03-07 00:13:00,
2013-03-06 18:23:00,29.9,22.3,30.41,NNW,340,0.0,0.0,73,0.00,,,0.05,Wunderground v.1.15,2013-03-07 00:23:00,
2013-03-06 18:33:00,29.8,21.9,30.41,North,355,0.0,0.0,72,0.00,,,0.05,Wunderground v.1.15,2013-03-07 00:33:00,
2013-03-06 18:43:00,29.6,22.0,30.41,NNW,339,0.0,0.0,73,0.00,,,0.05,Wunderground v.1.15,2013-03-07 00:43:00,
2013-03-06 18:53:00,29.6,22.0,30.41,WNW,293,0.0,0.0,73,0.00,,,0.05,Wunderground v.1.15,2013-03-07 00:53:00,
2013-03-06 19:03:00,29.5,21.6,30.41,NW,316,0.0,0.0,72,0.00,,,0.05,Wunderground v.1.15,2013-03-07 01:03:00,
2013-03-06 19:13:00,29.5,21.6,30.41,NNW,333,0.0,0.0,72,0.00,,,0.05,Wunderground v.1.15,2013-03-07 01:13:00,
2013-03-06 19:23:00,29.3,21.7,30.41,North,355,0.0,0.0,73,0.00,,,0.05,Wunderground v.1.15,2013-03-07 01:23:00,
2013-03-06 19:33:00,29.3,21.7,30.41,North,355,0.0,0.0,73,0.00,,,0.05,Wunderground v.1.15,2013-03-07 01:33:00,
2013-03-06 19:43:00,29.3,21.7,30.40,NNW,336,0.0,0.0,73,0.00,,,0.05,Wunderground v.1.15,2013-03-07 01:43:00,
2013-03-06 19:53:00,29.3,22.0,30.41,WNW,285,0.0,0.0,74,0.00,,,0.05,Wunderground v.1.15,2013-03-07 01:53:00,
2013-03-06 20:03:00,29.3,22.4,30.40,WNW,302,0.0,0.0,75,0.00,,,0.05,Wunderground v.1.15,2013-03-07 02:03:00,
2013-03-06 20:13:00,29.3,22.4,30.40,WNW,302,0.0,0.0,75,0.00,,,0.05,Wunderground v.1.15,2013-03-07 02:13:00,
2013-03-06 20:23:00,29.2,21.9,30.40,WNW,302,0.0,0.0,74,0.00,,,0.05,Wunderground v.1.15,2013-03-07 02:23:00,
2013-03-06 20:33:00,29.2,22.3,30.40,WNW,302,0.0,0.0,75,0.00,,,0.05,Wunderground v.1.15,2013-03-07 02:33:00,
2013-03-06 20:43:00,29.0,22.1,30.40,WNW,302,0.0,0.0,75,0.00,,,0.05,Wunderground v.1.15,2013-03-07 02:43:00,
2013-03-06 20:53:00,29.0,22.1,30.40,WNW,302,0.0,0.0,75,0.00,,,0.05,Wunderground v.1.15,2013-03-07 02:53:00,
2013-03-06 21:03:00,29.0,22.1,30.40,WNW,302,0.0,0.0,75,0.00,,,0.05,Wunderground v.1.15,2013-03-07 03:03:00,
2013-03-06 21:13:00,28.9,21.7,30.40,WNW,302,0.0,0.0,74,0.00,,,0.05,Wunderground v.1.15,2013-03-07 03:13:00,
2013-03-06 21:23:00,28.7,21.1,30.40,NNW,328,0.0,0.0,73,0.00,,,0.05,Wunderground v.1.15,2013-03-07 03:23:00,
2013-03-06 21:33:00,28.7,21.5,30.40,NNW,328,0.0,0.0,74,0.00,,,0.05,Wunderground v.1.15,2013-03-07 03:33:00,
2013-03-06 21:43:00,28.9,22.0,30.39,NNW,328,0.0,0.0,75,0.00,,,0.05,Wunderground v.1.15,2013-03-07 03:43:00,
2013-03-06 21:53:00,28.7,22.1,30.39,NNW,328,0.0,0.0,76,0.00,,,0.05,Wunderground v.1.15,2013-03-07 03:53:00,
2013-03-06 22:03:00,28.6,22.0,30.40,North,349,0.0,0.0,76,0.00,,,0.05,Wunderground v.1.15,2013-03-07 04:03:00,
2013-03-06 22:13:00,28.6,22.0,30.39,NNW,348,0.0,0.0,76,0.00,,,0.05,Wunderground v.1.15,2013-03-07 04:13:00,
2013-03-06 22:23:00,28.6,22.0,30.40,NNW,348,0.0,0.0,76,0.00,,,0.05,Wunderground v.1.15,2013-03-07 04:23:00,
2013-03-06 22:33:00,28.6,22.0,30.40,NW,316,0.0,0.0,76,0.00,,,0.05,Wunderground v.1.15,2013-03-07 04:33:00,
2013-03-06 22:43:00,28.6,22.3,30.40,NNW,327,0.0,0.0,77,0.00,,,0.05,Wunderground v.1.15,2013-03-07 04:43:00,
2013-03-06 22:53:00,28.7,22.4,30.39,NNW,328,0.0,0.0,77,0.00,,,0.05,Wunderground v.1.15,2013-03-07 04:53:00,
2013-03-06 23:03:00,28.7,22.4,30.39,NNW,336,0.0,0.0,77,0.00,,,0.05,Wunderground v.1.15,2013-03-07 05:03:00,
2013-03-06 23:13:00,28.6,22.3,30.39,NNW,342,0.0,0.0,77,0.00,,,0.05,Wunderground v.1.15,2013-03-07 05:13:00,
2013-03-06 23:18:00,28.6,22.3,30.40,WNW,292,0.0,0.0,77,0.00,,,0.05,Wunderground v.1.15,2013-03-07 05:18:00,
2013-03-06 23:23:00,28.6,22.3,30.39,WNW,300,0.0,0.0,77,0.00,,,0.05,Wunderground v.1.15,2013-03-07 05:23:00,
2013-03-06 23:33:00,28.4,22.1,30.40,NW,319,0.0,0.0,77,0.00,,,0.05,Wunderground v.1.15,2013-03-07 05:33:00,
2013-03-06 23:43:00,28.4,21.8,30.40,NW,319,0.0,0.0,76,0.00,,,0.05,Wunderground v.1.15,2013-03-07 05:43:00,
2013-03-06 23:53:00,28.3,21.4,30.40,NNW,340,0.0,0.0,75,0.00,,,0.05,Wunderground v.1.15,2013-03-07 05:53:00,